Location: Newark
(7.0858°N, 171.3717°E)
Time: 03:35:51
(UTC+00:00)

Envisat - Visible Passes

Search period start: 22 August 2019 00:00
Search period end: 01 September 2019 00:00
Orbit: 764 x 766 km, 98.1° (Epoch: 21 August)

Date Brightness Start Highest point End Pass type
(mag) Time Alt. Az. Time Alt. Az. Time Alt. Az.
22 Aug 3.0 07:09:23 10° SSE 07:14:27 84° ENE 07:19:31 10° N visible
23 Aug 5.8 08:13:29 10° SW 08:16:36 16° W 08:19:43 10° WNW visible
24 Aug 4.1 07:35:03 10° S 07:39:54 46° WSW 07:44:45 10° NNW visible
25 Aug 3.1 06:58:14 10° SSE 07:03:14 61° ENE 07:08:13 10° N visible
26 Aug 5.4 08:01:29 10° SSW 08:05:22 22° W 08:09:15 10° NW visible
27 Aug 3.5 07:23:39 10° S 07:28:40 64° WSW 07:33:41 10° NNW visible
28 Aug 6.2 08:30:19 10° WSW 08:30:50 10° W 08:31:21 10° W visible
29 Aug 4.9 07:49:44 10° SSW 07:54:08 30° W 07:58:32 10° NW visible
30 Aug 3.1 07:12:22 10° S 07:17:27 87° WSW 07:22:31 10° NNW visible
31 Aug 5.9 08:16:54 10° SW 08:19:36 14° W 08:22:19 10° WNW visible
